Woodworking Machinery Auction from Dance Floor Manufacturer

Lot #0113: Miller Thunderbolt AC Arc Welding Power Source On Cart

Bidding is closed.
High Bid:$155.00
NA
Bidding Ended: Thu, Nov 7  10:16:00 am PT
High Bidder: Randyjkure
Bid Increment: $10.00
Starting Bid: $5.00
Item Location: North Highlands, CA 95660
Item has been viewed 442 times.

Miller Thunderbolt AC Arc Welding Power Source On Cart

  • Volts: 230
  • Amps: 45.5

Bid Date Bid Amount Bidder
Nov 7, 2019 - 10:03:44 AM $155.00 iRandyjkure
Nov 7, 2019 - 10:03:44 AM $150.00 icbindy01
Nov 7, 2019 - 10:01:36 AM $136.85 iRandyjkure
Nov 7, 2019 - 10:01:06 AM $126.85 icbindy01
Nov 7, 2019 - 10:01:06 AM $125.00 iRandyjkure
Nov 7, 2019 - 9:43:52 AM $115.00 icbindy01
Nov 7, 2019 - 9:43:52 AM $111.11 imcchivas1111
Nov 7, 2019 - 9:43:34 AM $105.00 imcchivas1111
Nov 7, 2019 - 9:43:34 AM $100.00 icbindy01
Nov 7, 2019 - 9:43:15 AM $95.00 imcchivas1111
Nov 7, 2019 - 9:43:15 AM $90.00 icbindy01
Nov 7, 2019 - 8:24:42 AM $85.00 imcchivas1111
Nov 7, 2019 - 8:24:42 AM $80.00 iHerdel
Nov 7, 2019 - 7:53:18 AM $65.00 iHerdel
Nov 7, 2019 - 7:53:14 AM $60.00 icbindy01
Nov 7, 2019 - 7:53:14 AM $57.99 iHerdel
Nov 7, 2019 - 7:53:10 AM $52.99 icbindy01
Nov 7, 2019 - 7:53:10 AM $47.99 iHerdel
Nov 6, 2019 - 8:50:39 PM $42.99 icbindy01
Nov 6, 2019 - 3:50:47 PM $37.99 iwdieu
Nov 6, 2019 - 3:50:47 PM $35.00 iRandyjkure
Nov 6, 2019 - 12:42:53 PM $32.99 iRandyjkure
Nov 6, 2019 - 12:42:53 PM $27.99 imcchivas1111
Nov 5, 2019 - 7:30:40 PM $10.00 imcchivas1111
Nov 5, 2019 - 10:59:54 AM $5.00 isprichard304
Click on any picture to see a larger image.